Regional Weather Roundup
Issued by NWS Newport/Morehead, NC

Current Version | Previous Version | Graphics & Text | Print | Product List | Glossary On
Versions: 1 2 3 4 5 6 7 8 9 10 11 12 13 14 15 16 17 18 19 20 21 22 23 24 25 26 27 28 29 30 31 32 33 34 35 36 37 38 39 40 41 42 43 44 45 46 47 48 49 50
000 ASUS42 KMHX 182013 RWRMHX WEATHER ROUNDUP FOR EASTERN NORTH CAROLINA NATIONAL WEATHER SERVICE NEWPORT/MOREHEAD CITY NC 300 PM EST SAT NOV 18 2017 NOTE: "FAIR" INDICATES FEW OR NO CLOUDS BELOW 12,000 FEET WITH NO SIGNIFICANT WEATHER AND/OR OBSTRUCTIONS TO VISIBILITY NCZ015>017-031-032-045>047-102-103-182100- NORTH COAST CITY SKY/WX TMP DP RH WIND PRES REMARKS EDENTON MOSUNNY 68 53 59 SW14 29.83F ELIZABETH CITY CLOUDY 64 52 64 S14G24 29.82F KITTY HAWK PTCLDY 61 49 65 S7 29.83F MANTEO PTSUNNY 60 52 76 S16 29.85F $$ NCZ045>047-081-094-103-104-182100- CENTRAL COAST CITY SKY/WX TMP DP RH WIND PRES REMARKS FRISCO MOSUNNY 65 59 81 SW10 29.89F $$ NCZ095-097-098-100-101-182100- SOUTHERN COAST CITY SKY/WX TMP DP RH WIND PRES REMARKS BEAUFORT SUNNY 66 59 78 S16 29.88F CEDAR ISLAND NOT AVBL JACKSONVILLE SUNNY 69 54 58 S10 29.86F PINEY ISLAND NOT AVBL WILMINGTON CLOUDY 69 56 62 S15 29.88F $$ NCZ011>013-027>030-043-044-078>080-089-090>093-098-182100- COASTAL PLAIN CITY SKY/WX TMP DP RH WIND PRES REMARKS AHOSKIE CLOUDY 64 49 58 S6 29.80F CLINTON MOSUNNY 69 54 60 S6G17 29.85F ELIZABETHTOWN NOT AVBL GOLDSBORO MOSUNNY 69 52 54 S15G24 29.80F GREENVILLE CLOUDY 70 50 49 SW15G25 29.85F HAVELOCK SUNNY 67 53 61 SW13G25 29.88F KENANSVILLE PTSUNNY 70 52 52 S7G21 29.85F KINSTON CLOUDY 70 52 52 S15G21 29.84F NEW BERN SUNNY 68 47 46 S12G25 29.87F RICHLANDS CLOUDY 69 53 56 S12G21 29.86F ROCKY MOUNT PTSUNNY 66 51 58 S16G26 29.81F WASHINGTON MOSUNNY 69 50 51 SW18G29 29.83F WHITEVILLE CLOUDY 71 56 60 S15 29.87F $$ AMZ130-135-150-152-154-156-158-170-250-252-270-ANZ085-086-088-633-658-670-182100- MARINE OBSERVATIONS STATION/POSITION TIME TEMP WIND PRES WAVE SWELL AIR SEA DIR/SP/G HT/PER HT/PER (UTC) (F) (DEG/KT/KT) (MB) (FT/S) (FT/S) CHESAPEAKE LIGHT NOT AVBL 64 E VA BEACH 1950 62 61 200/ 19/ 23 1010.5 4/ 5 2/11 DUCK NOT AVBL 2 E DUCK 2000 60 N/A 2/12 OREGON INLET NOT AVBL 13E OREGON INLT 1948 61 N/A 3/12 2/12 HATTERAS CG NOT AVBL DIAMOND BUOY 2000 69 65 210/ 17/ 23 1012.5 CAPE LOOKOUT 2000 66 190/ 10/ 12 1012.6 BEAUFORT LAB NOT AVBL 30 SE NEW RVR IN 1908 69 70 190/ 14/ 19 1013.4 30 SE NEW RVR IN 2000 70 N/A 3/11 2/11 27 SE WRIGHTSVLE 1908 68 67 190/ 12/ 17 1012.7 5 SE WRIGHTSVLE 1908 65 64 200/ 8/ 12 1013.2 225 S CAPE HAT 1950 71 77 170/ 10/ 16 1015.6 6/ 9 5/ 9 41 SE CHARLESTON 2000 73 76 240/ 14/ 17 1011.9 $$

USA.gov is the U.S. government's official web portal to all federal, state and local government web resources and services.